Zurück zum Katalog

ARIANE 40 R/B

AktivSSO
NORAD 22830·ROCKET BODY·🇫🇷 France

Gestartet Sep 26, 1993 von Guiana Space Centre

Loading…

Nächste Überflüge (nächste 24 Stunden)

TLE

AktuellSource: Space-Track

Epoche: Sep 14, 2026, 03:58 UTC

1 22830U 93061H   26257.16564245  .00000106  00000-0  54308-4 0  9990
2 22830  98.4737 322.1384 0011890  87.2358 273.0187 14.32936913721098

Verfolge ARIANE 40 R/B in Echtzeit mit AllMySat

Download on the App Store